STARLINK-5399, 54788

Orbit data source: Space-Track

STARLINK-5399, 54788 is a payload satellite owned by SpaceX/Seattle (US) in LEO that was launched on Sat, 17 Dec 2022 UTC via an FALCON 9 launch vehicle from the Air Force Eastern Test Range (AFETR). Payload-class satellites include a variety of spacecraft equipped with specific instruments for various scientific and technological missions. These include communications satellites like Starlink; space stations such as the ISS; scientific satellites like the Hubble; Earth observation satellites from companies like Planet Labs, Umbra, and HawkEye 360; GPS; miniature CubeSats for education and research; and military/defense satellites.

Loading next visibility...
Identifier
54788, 2022-175AG
Orbit
LEO
Last TLE update
8 hours ago
Origin
Manufacturer
SpaceX/Seattle
Mission
Operational Commercial Communications
Bus & Motor
STARLINK, Unknown motor
Mass
305 kg wet, ~290 kg dry
Launch date (UTC)
2022-12-17 (2 years ago)
Launch vehicle
FALCON 9
Launch site
Air Force Eastern Test Range (AFETR)
Object type
Payload
Rocket body
Debris
Shape & HBR
Box + 1 Pan, 8.86 m
Radar Cross Section
13.562 m², Large (>1 m²)

Expand to show TLE details & history

TLE from 8 hours ago
0 STARLINK-5399
1 54788U 22175AG  25130.92119442  .00000072  00000-0  22604-4 0  9999
2 54788  53.2177 308.1658 0001406  94.7044 265.4109 15.08821500134420
Epoch: 2025-05-10T22:06Z
Definitive object data (Epoch: 2025-05-10T22:06:31.197Z)
Latitude
-0.00002°
Longitude
107.57974°
Altitude
540.775 km
Speed
7.593 km/s
True Right ascension
20h 32m 39s
True Declination
0° 00' 00"
Sunlit
Object was in daylight at TLE epoch
Visualization TLE readout
Latitude
52.65251°
Longitude
-176.98608°
Altitude
545.296 km
Speed
7.596 km/s
Apparent Right ascension
02h 10m 43s
Apparent Declination
8° 53' 39"
Sunlit
Object is in daylight
Visualization observer readout
Local Sidereal Time
14:41:54
Azimuth
10.172° NNE
Elevation
-40.659°
Doppler factor
1
Orbital elements
Apogee altitude
541.018 km
Perigee altitude
539.072 km
Semi-major axis
6,918.182 km
Eccentricity
0.0001406
Inclination
53.2177°
RAAN
308.1658°
Arg. of periapsis
94.7044°
True anomaly
265.39484°
Mean anomaly
265.4109°
Eccentric anomaly
265.40287°
Mean motion
3.77186 °/min
BSTAR
0.000022604
Orbital period
95.44 mins
Loading maneuver chart data...
Loading SW <> Apogee altitude chart data...
Loading historical data...
Loading historical data...
Loading historical data...
Loading historical data...
Loading historical data...
Loading historical data...
Loading historical data...

STARLINK-5399 Visibility forecast

Observer location: undefined°, undefined°

Span
Click to sort rows by Start time (UTC) header in descending order
Start Az.
Max El. time (UTC)
Max El. Az.
Max El.
End time (UTC)
End Az.
7 mins2025-05-11 14:10:11.133Z211.845° SW2025-05-11 14:13:11.133Z161.085° S38.749°2025-05-11 14:17:11.133Z58.469° ENE
5 mins2025-05-11 15:51:11.133Z291.285° WNW2025-05-11 15:53:11.133Z334.863° NNW23.939°2025-05-11 15:56:11.133Z28.598° NE
6 mins2025-05-11 20:52:11.133Z326.917° NNW2025-05-11 20:54:11.133Z22.17° NNE38.738°2025-05-11 20:58:11.133Z113.803° SE
4 mins2025-05-11 22:32:11.133Z257.119° W2025-05-11 22:33:11.133Z237.427° WSW19.189°2025-05-11 22:36:11.133Z186.143° SSW
|